Weather History for KDKB - June, 2013

Change the Weather History Date:

Friday, June 14, 2013

  Actual Average (KARR) Record (KARR)
Temperature  
Mean Temperature 66 °F 69 °F  
Max Temperature 77 °F 80 °F 93 °F (2001)
Min Temperature 54 °F 58 °F 48 °F (2014)
Degree Days  
Heating Degree Days 0 1  
Month to date heating degree days 31  
Since 1 June heating degree days 31  
Since 1 July heating degree days 6765  
Cooling Degree Days 0 5  
Month to date cooling degree days 55  
Year to date cooling degree days 96  
Since 1 June cooling degree days 55  
Growing Degree Days 16 (Base 50)    
Moisture  
Dew Point 55 °F    
Average Humidity 69    
Maximum Humidity 88    
Minimum Humidity 47    
Precipitation  
Precipitation 0.00 in 0.14 in 0.41 in (2004)
Month to date precipitation 2.33  
Year to date precipitation 15.21  
Sea Level Pressure  
Sea Level Pressure 30.08 in    
Wind  
Wind Speed 8 mph (ENE)    
Max Wind Speed 13 mph    
Max Gust Speed 17 mph    
Visibility 10 miles    
Events      
T = Trace of Precipitation, MM = Missing Value Source: NWS Daily Summary

Daily Weather History Graph

Daily Weather History Graph

Search for Another Location

Airport or City:

Trip Planner

Search our weather history database for the weather conditions in past years. The results will help you decide how hot, cold, wet, or windy it might be!

Date:

Astronomy

Jun. 14, 2013 Rise Set
Actual Time 5:18 AM CDT 8:31 PM CDT
Civil Twilight 4:44 AM CDT 9:05 PM CDT
Nautical Twilight 4:00 AM CDT 9:50 PM CDT
Astronomical Twilight 3:07 AM CDT 10:43 PM CDT
Moon 10:58 AM CDT (6/14) No Moon Set
Length of Visible Light 16h 21m
Length of Day
15h 12m
Waxing Crescent, 30% of the Moon is Illuminated
Jun 14
Waxing Crescent
Jun 16
First Quarter
Jun 23
Full
Jun 29
Last Quarter
Jul 8
New

Hourly Weather History & Observations

Time (CDT) Temp. Dew Point Humidity Pressure Visibility Wind Dir Wind Speed Gust Speed Precip Events Conditions
12:15 AM 59.5 °F 53.8 °F 81% 30.06 in 10.0 mi NE 10.4 mph - N/A   Clear
12:35 AM 59.0 °F 52.9 °F 80% 30.06 in 10.0 mi NE 11.5 mph - N/A   Clear
12:55 AM 58.1 °F 52.3 °F 81% 30.06 in 10.0 mi NE 10.4 mph - N/A   Clear
1:15 AM 58.1 °F 52.7 °F 82% 30.06 in 10.0 mi ENE 6.9 mph - N/A   Clear
1:55 AM 56.8 °F 52.2 °F 84% 30.07 in 10.0 mi NE 10.4 mph - N/A   Clear
2:15 AM 56.7 °F 52.0 °F 84% 30.08 in 10.0 mi NE 9.2 mph - N/A   Clear
2:35 AM 56.3 °F 51.8 °F 85% 30.08 in 10.0 mi NNE 6.9 mph - N/A   Clear
2:55 AM 55.8 °F 51.6 °F 86% 30.08 in 10.0 mi NNE 5.8 mph - N/A   Clear
3:15 AM 55.6 °F 51.4 °F 86% 30.08 in 10.0 mi North 4.6 mph - N/A   Clear
3:35 AM 55.2 °F 51.3 °F 87% 30.08 in 10.0 mi NNE 8.1 mph - N/A   Clear
3:55 AM 55.2 °F 51.3 °F 87% 30.09 in 10.0 mi NNW 4.6 mph - N/A   Clear
4:15 AM 54.7 °F 50.9 °F 87% 30.09 in 10.0 mi North 6.9 mph - N/A   Clear
4:35 AM 54.9 °F 50.9 °F 86% 30.07 in 10.0 mi NNE 8.1 mph - N/A   Clear
4:55 AM 54.1 °F 50.5 °F 88% 30.08 in 10.0 mi NNE 6.9 mph - N/A   Clear
5:15 AM 54.0 °F 50.4 °F 88% 30.08 in 10.0 mi NNE 9.2 mph - N/A   Clear
5:35 AM 54.1 °F 50.5 °F 88% 30.07 in 10.0 mi NE 6.9 mph - N/A   Clear
5:55 AM 54.1 °F 50.5 °F 88% 30.08 in 10.0 mi NE 5.8 mph - N/A   Clear
6:15 AM 54.9 °F 51.1 °F 87% 30.09 in 10.0 mi North 3.5 mph - N/A   Clear
6:35 AM 56.5 °F 52.0 °F 85% 30.10 in 10.0 mi NNE 6.9 mph - N/A   Clear
7:15 AM 59.2 °F 53.1 °F 80% 30.11 in 10.0 mi NNE 8.1 mph - N/A   Clear
7:35 AM 59.9 °F 53.2 °F 79% 30.12 in 10.0 mi NNE 8.1 mph - N/A   Clear
7:55 AM 60.4 °F 53.6 °F 78% 30.13 in 10.0 mi North 5.8 mph - N/A   Clear
8:15 AM 61.7 °F 54.3 °F 77% 30.15 in 10.0 mi NNE 4.6 mph - N/A   Clear
8:35 AM 62.4 °F 54.5 °F 75% 30.15 in 10.0 mi North 4.6 mph - N/A   Clear
8:55 AM 63.5 °F 55.4 °F 75% 30.16 in 10.0 mi North 4.6 mph - N/A   Clear
9:15 AM 64.2 °F 55.9 °F 74% 30.15 in 10.0 mi NNE 5.8 mph - N/A   Clear
9:35 AM 65.7 °F 57.0 °F 74% 30.15 in 10.0 mi NE 5.8 mph - N/A   Clear
9:55 AM 65.7 °F 56.5 °F 72% 30.14 in 10.0 mi NE 5.8 mph - N/A   Clear
10:15 AM 67.1 °F 58.1 °F 73% 30.14 in 10.0 mi Calm Calm - N/A   Clear
10:35 AM 68.9 °F 58.6 °F 70% 30.13 in 10.0 mi NE 3.5 mph - N/A   Clear
10:55 AM 70.2 °F 59.7 °F 69% 30.11 in 10.0 mi East 9.2 mph - N/A   Clear
11:35 AM 71.6 °F 59.4 °F 65% 30.10 in 10.0 mi East 10.4 mph 17.3 mph N/A   Clear
11:55 AM 73.0 °F 59.7 °F 63% 30.11 in 10.0 mi ENE 12.7 mph 17.3 mph N/A   Clear
12:15 PM 73.0 °F 59.4 °F 62% 30.12 in 10.0 mi ENE 8.1 mph - N/A   Clear
12:35 PM 73.8 °F 58.1 °F 58% 30.13 in 10.0 mi ESE 4.6 mph - N/A   Clear
12:55 PM 74.1 °F 58.5 °F 58% 30.13 in 10.0 mi ENE 5.8 mph - N/A   Clear
1:15 PM 75.6 °F 60.1 °F 59% 30.13 in 10.0 mi NE 4.6 mph - N/A   Clear
1:35 PM 74.8 °F 58.3 °F 56% 30.12 in 10.0 mi SSE 5.8 mph - N/A   Clear
1:55 PM 75.6 °F 57.4 °F 53% 30.12 in 10.0 mi ESE 6.9 mph - N/A   Clear
2:15 PM 75.7 °F 58.5 °F 55% 30.12 in 10.0 mi South 5.8 mph - N/A   Clear
2:35 PM 75.7 °F 56.3 °F 51% 30.11 in 10.0 mi SSE 4.6 mph - N/A   Clear
2:55 PM 75.7 °F 56.5 °F 51% 30.10 in 10.0 mi SSE 4.6 mph - N/A   Clear
3:15 PM 76.3 °F 57.6 °F 52% 30.09 in 10.0 mi SE 6.9 mph - N/A   Clear
3:35 PM 76.1 °F 55.0 °F 48% 30.09 in 10.0 mi SSE 3.5 mph - N/A   Clear
3:55 PM 76.6 °F 57.4 °F 51% 30.08 in 10.0 mi SSW 4.6 mph - N/A   Clear
4:15 PM 76.8 °F 58.1 °F 52% 30.06 in 10.0 mi SE 5.8 mph - N/A   Clear
4:35 PM 77.0 °F 58.1 °F 52% 30.06 in 10.0 mi ESE 8.1 mph - N/A   Clear
4:55 PM 76.8 °F 55.4 °F 47% 30.06 in 10.0 mi ESE 3.5 mph - N/A   Clear
5:35 PM 76.5 °F 56.5 °F 50% 30.04 in 10.0 mi East 6.9 mph - N/A   Clear
5:55 PM 76.3 °F 55.8 °F 49% 30.03 in 10.0 mi ESE 4.6 mph - N/A   Clear
6:15 PM 75.7 °F 56.5 °F 51% 30.03 in 10.0 mi SSE 6.9 mph - N/A   Clear
6:35 PM 74.8 °F 55.8 °F 51% 30.02 in 10.0 mi SE 6.9 mph - N/A   Clear
6:55 PM 73.9 °F 55.2 °F 52% 30.02 in 10.0 mi SE 9.2 mph - N/A   Clear
7:15 PM 73.6 °F 56.8 °F 56% 30.03 in 10.0 mi SSE 5.8 mph - N/A   Clear
7:35 PM 72.7 °F 58.1 °F 60% 30.02 in 10.0 mi SE 5.8 mph - N/A   Clear
7:55 PM 72.3 °F 58.1 °F 61% 30.04 in 10.0 mi SSE 5.8 mph - N/A   Clear
8:15 PM 71.8 °F 58.5 °F 63% 30.05 in 10.0 mi Calm Calm - N/A   Clear
8:35 PM 70.2 °F 54.9 °F 58% 30.05 in 10.0 mi East 10.4 mph - N/A   Clear
8:55 PM 68.9 °F 55.0 °F 61% 30.05 in 10.0 mi East 9.2 mph - N/A   Clear
9:15 PM 67.6 °F 55.0 °F 64% 30.05 in 10.0 mi ESE 8.1 mph - N/A   Clear
9:35 PM 66.7 °F 53.8 °F 63% 30.04 in 10.0 mi ESE 9.2 mph - N/A   Clear
10:15 PM 65.1 °F 53.6 °F 66% 30.04 in 10.0 mi ESE 8.1 mph - N/A   Clear
10:35 PM 63.5 °F 53.8 °F 71% 30.04 in 10.0 mi East 9.2 mph - N/A   Clear
10:55 PM 62.6 °F 54.0 °F 73% 30.04 in 10.0 mi East 9.2 mph - N/A   Clear
11:15 PM 61.9 °F 54.1 °F 76% 30.04 in 10.0 mi East 9.2 mph - N/A   Clear